Showing default

GSAT 29, 43698

Orbit data source: Space-Track

GSAT 29, 43698 is a payload satellite owned by ISRO (IN) in GEO that was launched on Wed, 14 Nov 2018 UTC via a GSLV MK III launch vehicle from the Sirharikota (SRI). Payload-class satellites include a variety of spacecraft equipped with specific instruments for various scientific and technological missions. These include communications satellites like Starlink; space stations such as the ISS; scientific satellites like the Hubble; Earth observation satellites from companies like Planet Labs, Umbra, and HawkEye 360; GPS; miniature CubeSats for education and research; and military/defense satellites.

Not visible in the next 10 days
Identifier
43698, 2018-089A
Orbit
GEO
Last TLE update
9 hours ago
Origin
Manufacturer
ISRO SAC/Banga
Mission
Operational Civil Communications
Bus & Motor
I3K, ISRO LAM
Mass
3,423 kg wet, ~1,500 kg dry
Launch date (UTC)
2018-11-14 (7 years ago)
Launch vehicle
GSLV MK III
Launch site
Sirharikota (SRI)
Object type
Payload
Rocket body
Debris
Shape & HBR
Box + 2 Pan, 20 m
Radar Cross Section
16.006 m², Large (>1 m²)

Expand to show TLE details & history

TLE from 9 hours ago
0 GSAT 29
1 43698U 18089A   25189.96564846  .00000100  00000-0  00000-0 0  9990
2 43698   0.0544 263.2264 0003168 180.9768 245.6132  1.00270369 24352
Epoch: 2025-07-08T23:10Z
TLE epoch observation values (Epoch: 2025-07-08T23:10:32.026Z)
Latitude
0.01945°
Longitude
54.99864°
Altitude
35,792.059 km
Speed
3.074 km/s
True Right ascension
21h 59m 08s
True Declination
0° 01' 10"
Sunlit
Object was in daylight at epoch
Visualization orbit readout
Latitude
0.01735°
Longitude
-176.05221°
Altitude
35,773.449 km
Speed
3.076 km/s
Apparent Right ascension
06h 43m 05s
Apparent Declination
-4° 57' 25"
Sunlit
Object is in daylight
Visualization observer readout
Local Sidereal Time
19:54:18
Azimuth
29.323° NE
Elevation
-51.532°
Doppler factor
1
Orbital elements
Apogee altitude
35,801.421 km
Perigee altitude
35,774.704 km
Semi-major axis
42,166.199 km
Eccentricity
0.00032
Inclination
0.0544°
RAAN
263.2264°
Arg. of periapsis
180.9768°
True anomaly
Unknown
Mean anomaly
245.6132°
Eccentric anomaly
Unknown
Mean motion
0.25067 °/min
Orbital period
1,436.17 mins
BSTAR
0
Loading historical data...
43698 neighbors
Loading maneuver chart data...
Loading SW <> Apogee altitude chart data...
Loading historical data...
Loading historical data...
Loading historical data...
Loading historical data...
Loading historical data...
Loading historical data...
Loading historical data...
Other satellites on launch #89 in the year 2018 (2018-11-14 UTC)

GSAT 29 Visibility

Observer location: undefined°, undefined°

GSAT 29 is likely not visible in the next few days
Span
Click to sort rows by Start time (UTC) header in descending order
Start Az.
Max El. time (UTC)
Max El. Az.
Max El.
End time (UTC)
End Az.
|